Location: ?astrovice
(49.6513°N, 14.9287°E)
Time: 07:11:39
(UTC+00:00)

BEESAT - Pass Details

Date: 01 November 2021
Orbit: 700 x 707 km, 98.6° (Epoch: 06 December)

Event Time Altitude Azimuth Distance (km) Brightness Sun altitude
Rises 03:53:55 0° 109° (ESE) 3,083 ? -19.0°
Reaches altitude 10° 03:57:11 10° 85° (E) 2,170 ? -18.5°
Maximum altitude 03:59:35 14° 54° (NE) 1,909 ? -18.1°
Drops below altitude 10° 04:02:01 10° 23° (NNE) 2,178 ? -17.7°
Sets 04:05:17 0° 359° (N) 3,102 ? -17.2°
